Overview Statistics Trail Chart Weather Telemetry Raw packets
 

This is the latest recevied weather packets stored in our database for station/object KE8WMS. If no packets are shown the sender has not sent any weather packets the latest 10 day(s).

<< 74 75 76 77 78 79 80 >>
Time Temp. Humidity Pressure Rain* Wind** Luminosity Snow
1777312016 22.22° C 41% 1014.8 hPa 0 mm - 682 W/m² -
1777311712 21.67° C 44% 1015.1 hPa 0 mm - 636 W/m² -
1777311410 21.11° C 42% 1015.1 hPa 0 mm - 625 W/m² -
1777311107 21.11° C 42% 1015.2 hPa 0 mm - 683 W/m² -
1777310806 21.11° C 44% 1015.1 hPa 0 mm - 644 W/m² -
1777310503 21.11° C 46% 1015.2 hPa 0 mm - 640 W/m² -
1777310200 21.11° C 47% 1015.2 hPa 0 mm - 631 W/m² -
1777309897 20.56° C 46% 1015.3 hPa 0 mm - 699 W/m² -
1777309595 20.56° C 48% 1015.6 hPa 0 mm - 716 W/m² -
1777309292 20.56° C 49% 1015.9 hPa 0 mm - 699 W/m² -
1777308990 20° C 47% 1015.7 hPa 0 mm - 720 W/m² -
1777308686 20° C 49% 1015.4 hPa 0 mm - 532 W/m² -
1777308381 20° C 48% 1015.6 hPa 0 mm - 659 W/m² -
1777308077 20° C 53% 1015.7 hPa 0 mm - 647 W/m² -
1777307775 19.44° C 50% 1015.8 hPa 0 mm - 667 W/m² -
1777307472 18.89° C 52% 1015.7 hPa 0 mm - 629 W/m² -
1777307169 18.89° C 51% 1015.8 hPa 0 mm - 587 W/m² -
1777306866 19.44° C 50% 1015.7 hPa 0 mm - 625 W/m² -
1777306563 19.44° C 52% 1015.6 hPa 0 mm - 609 W/m² -
1777306259 19.44° C 50% 1015.8 hPa 0 mm - 643 W/m² -
1777305954 18.89° C 55% 1015.8 hPa 0 mm - 612 W/m² -
1777305650 18.89° C 54% 1015.8 hPa 0 mm - 614 W/m² -
1777305346 18.89° C 57% 1016 hPa 0 mm - 591 W/m² -
1777305047 18.89° C 53% 1016.3 hPa 0 mm - 587 W/m² -
1777304747 18.89° C 57% 1016.3 hPa 0 mm - 680 W/m² -

* Rain latest hour (hover to see other rain measurements)
** Current wind speed in m/s (hover to see current wind gust speed)